| time (UTC) | temp F | wind direction | speed MPH | gust MPH | rain 1hr in | rain 24hr in | rain mn in | humidity % | barometer mb |
| 20260507090046 | 54 | 184 | 2.0 | 8.0 | 0.00 | 0.00 | 0.00 | 36 | 1015.4 |
| 20260507085540 | 54 | 167 | 4.0 | 8.0 | 0.00 | 0.00 | 0.00 | 35 | 1015.5 |
| 20260507085039 | 54 | 225 | 4.0 | 7.0 | 0.00 | 0.00 | 0.00 | 38 | 1015.5 |
| 20260507084554 | 53 | 0 | 2.0 | 8.0 | 0.00 | 0.00 | 0.00 | 34 | 1015.4 |
| 20260507084039 | 53 | 130 | 1.0 | 9.0 | 0.00 | 0.00 | 0.00 | 35 | 1015.5 |
| 20260507083540 | 54 | 286 | 4.0 | 9.0 | 0.00 | 0.00 | 0.00 | 40 | 1015.6 |
| 20260507083048 | 53 | 255 | 4.0 | 9.0 | 0.00 | 0.00 | 0.00 | 37 | 1015.5 |
| 20260507082538 | 52 | 55 | 3.0 | 7.0 | 0.00 | 0.00 | 0.00 | 35 | 1015.5 |
| 20260507082036 | 52 | 291 | 3.0 | 7.0 | 0.00 | 0.00 | 0.00 | 36 | 1015.5 |
| 20260507081549 | 52 | 339 | 2.0 | 6.0 | 0.00 | 0.00 | 0.00 | 34 | 1015.6 |
| 20260507081036 | 52 | 286 | 3.0 | 9.0 | 0.00 | 0.00 | 0.00 | 36 | 1015.6 |
| 20260507080540 | 52 | 253 | 5.0 | 9.0 | 0.00 | 0.00 | 0.00 | 36 | 1015.6 |
| 20260507080052 | 52 | 235 | 1.0 | 4.0 | 0.00 | 0.00 | 0.00 | 35 | 1015.5 |
| 20260507075540 | 52 | 78 | 2.0 | 4.0 | 0.00 | 0.00 | 0.00 | 35 | 1015.5 |
| 20260507075039 | 51 | 0 | 0.0 | 6.0 | 0.00 | 0.00 | 0.00 | 35 | 1015.5 |
| 20260507074552 | 51 | 273 | 3.0 | 6.0 | 0.00 | 0.00 | 0.00 | 37 | 1015.6 |
| 20260507074039 | 51 | 302 | 2.0 | 6.0 | 0.00 | 0.00 | 0.00 | 35 | 1015.6 |
| 20260507073539 | 52 | 267 | 1.0 | 5.0 | 0.00 | 0.00 | 0.00 | 39 | 1015.6 |
| 20260507073048 | 51 | 140 | 1.0 | 5.0 | 0.00 | 0.00 | 0.00 | 38 | 1015.6 |
| 20260507072539 | 50 | 352 | 2.0 | 5.0 | 0.00 | 0.00 | 0.00 | 37 | 1015.7 |
| 20260507072038 | 51 | 0 | 1.0 | 5.0 | 0.00 | 0.00 | 0.00 | 36 | 1015.7 |
| 20260507071548 | 51 | 95 | 3.0 | 7.0 | 0.00 | 0.00 | 0.00 | 38 | 1015.7 |
| 20260507071039 | 51 | 59 | 3.0 | 8.0 | 0.00 | 0.00 | 0.00 | 38 | 1015.6 |
| 20260507070539 | 51 | 92 | 2.0 | 8.0 | 0.00 | 0.00 | 0.00 | 37 | 1015.6 |
| 20260507065538 | 50 | 190 | 1.0 | 7.0 | 0.00 | 0.00 | 0.00 | 37 | 1015.6 |
| 20260507065038 | 50 | 169 | 2.0 | 7.0 | 0.00 | 0.00 | 0.00 | 39 | 1015.6 |
| 20260507064547 | 49 | 101 | 2.0 | 7.0 | 0.00 | 0.00 | 0.00 | 40 | 1015.6 |
| 20260507064037 | 49 | 13 | 2.0 | 6.0 | 0.00 | 0.00 | 0.00 | 40 | 1015.6 |
| 20260507063536 | 49 | 38 | 2.0 | 8.0 | 0.00 | 0.00 | 0.00 | 40 | 1015.6 |
| 20260507063051 | 48 | 38 | 3.0 | 10.0 | 0.00 | 0.00 | 0.00 | 41 | 1015.7 |
| 20260507062536 | 48 | 83 | 4.0 | 10.0 | 0.00 | 0.00 | 0.00 | 39 | 1015.7 |
| 20260507062037 | 48 | 103 | 5.0 | 9.0 | 0.00 | 0.00 | 0.00 | 40 | 1015.6 |
| 20260507061555 | 48 | 96 | 2.0 | 7.0 | 0.00 | 0.00 | 0.00 | 45 | 1015.6 |
| 20260507061038 | 47 | 90 | 2.0 | 5.0 | 0.00 | 0.00 | 0.00 | 48 | 1015.6 |
| 20260507060539 | 46 | 5 | 3.0 | 6.0 | 0.00 | 0.00 | 0.00 | 48 | 1015.7 |
| 20260507060046 | 46 | 349 | 3.0 | 7.0 | 0.00 | 0.00 | 0.00 | 47 | 1015.6 |
| 20260507055537 | 46 | 45 | 3.0 | 7.0 | 0.00 | 0.00 | 0.00 | 50 | 1015.5 |
| 20260507055038 | 45 | 22 | 2.0 | 5.0 | 0.00 | 0.00 | 0.00 | 48 | 1015.5 |
| 20260507054546 | 45 | 48 | 2.0 | 4.0 | 0.00 | 0.00 | 0.00 | 49 | 1015.5 |
| 20260507054036 | 45 | 80 | 2.0 | 4.0 | 0.00 | 0.00 | 0.00 | 50 | 1015.5 |
| 20260507053537 | 45 | 53 | 1.0 | 4.0 | 0.00 | 0.00 | 0.00 | 50 | 1015.5 |
| 20260507053049 | 44 | 69 | 2.0 | 4.0 | 0.00 | 0.00 | 0.00 | 51 | 1015.5 |
| 20260507052537 | 43 | 53 | 1.0 | 4.0 | 0.00 | 0.00 | 0.00 | 52 | 1015.5 |
| 20260507052037 | 42 | 58 | 1.0 | 4.0 | 0.00 | 0.00 | 0.00 | 54 | 1015.5 |
| 20260507051545 | 42 | 46 | 1.0 | 4.0 | 0.00 | 0.00 | 0.00 | 56 | 1015.4 |
| 20260507051038 | 41 | 75 | 1.0 | 4.0 | 0.00 | 0.00 | 0.00 | 57 | 1015.5 |
| 20260507050538 | 40 | 0 | 1.0 | 4.0 | 0.00 | 0.00 | 0.00 | 59 | 1015.5 |
| 20260507045537 | 38 | 51 | 1.0 | 3.0 | 0.00 | 0.00 | 0.00 | 61 | 1015.6 |
| 20260507045036 | 38 | 44 | 0.0 | 2.0 | 0.00 | 0.00 | 0.00 | 63 | 1015.6 |
| 20260507044552 | 37 | 44 | 1.0 | 3.0 | 0.00 | 0.00 | 0.00 | 64 | 1015.5 |
| 20260507044041 | 37 | 78 | 1.0 | 3.0 | 0.00 | 0.00 | 0.00 | 66 | 1015.6 |
| 20260507043537 | 36 | 55 | 1.0 | 4.0 | 0.00 | 0.00 | 0.00 | 69 | 1015.5 |
| 20260507043047 | 36 | 32 | 1.0 | 4.0 | 0.00 | 0.00 | 0.00 | 69 | 1015.6 |
| 20260507042540 | 34 | 28 | 2.0 | 4.0 | 0.00 | 0.00 | 0.00 | 72 | 1015.6 |
| 20260507042039 | 33 | 34 | 2.0 | 4.0 | 0.00 | 0.00 | 0.00 | 75 | 1015.6 |
| 20260507041552 | 32 | 0 | 0.0 | 3.0 | 0.00 | 0.00 | 0.00 | 79 | 1015.6 |
| 20260507041037 | 32 | 0 | 1.0 | 3.0 | 0.00 | 0.00 | 0.00 | 79 | 1015.6 |
| 20260507040537 | 31 | 41 | 1.0 | 3.0 | 0.00 | 0.00 | 0.00 | 80 | 1015.6 |
| 20260507040050 | 30 | 55 | 1.0 | 3.0 | 0.00 | 0.00 | 0.00 | 82 | 1015.5 |
| 20260507035536 | 30 | 0 | 1.0 | 3.0 | 0.00 | 0.00 | 0.00 | 82 | 1015.5 |
| 20260507035038 | 29 | 65 | 2.0 | 3.0 | 0.00 | 0.00 | 0.00 | 83 | 1015.6 |
| 20260507034544 | 28 | 67 | 1.0 | 3.0 | 0.00 | 0.00 | 0.00 | 83 | 1015.5 |
| 20260507034035 | 27 | 55 | 1.0 | 2.0 | 0.00 | 0.00 | 0.00 | 84 | 1015.5 |
| 20260507033537 | 27 | 49 | 1.0 | 2.0 | 0.00 | 0.00 | 0.00 | 84 | 1015.5 |
| 20260507033048 | 26 | 38 | 1.0 | 2.0 | 0.00 | 0.00 | 0.00 | 84 | 1015.5 |
| 20260507032537 | 26 | 44 | 1.0 | 2.0 | 0.00 | 0.00 | 0.00 | 85 | 1015.5 |
| 20260507032037 | 25 | 42 | 0.0 | 3.0 | 0.00 | 0.00 | 0.00 | 85 | 1015.4 |
| 20260507031553 | 25 | 42 | 0.0 | 3.0 | 0.00 | 0.00 | 0.00 | 86 | 1015.4 |
| 20260507031041 | 24 | 42 | 1.0 | 3.0 | 0.00 | 0.00 | 0.00 | 86 | 1015.4 |
| 20260507030538 | 23 | 43 | 1.0 | 3.0 | 0.00 | 0.00 | 0.00 | 86 | 1015.4 |
| 20260507030046 | 23 | 0 | 0.0 | 2.0 | 0.00 | 0.00 | 0.00 | 86 | 1015.4 |
| 20260507025536 | 23 | 0 | 0.0 | 1.0 | 0.00 | 0.00 | 0.00 | 86 | 1015.4 |
| 20260507025039 | 22 | 0 | 0.0 | 2.0 | 0.00 | 0.00 | 0.00 | 85 | 1015.5 |
| 20260507024547 | 23 | 0 | 0.0 | 3.0 | 0.00 | 0.00 | 0.00 | 85 | 1015.4 |
| 20260507024037 | 23 | 0 | 1.0 | 4.0 | 0.00 | 0.00 | 0.00 | 86 | 1015.5 |
| 20260507023538 | 23 | 40 | 2.0 | 4.0 | 0.00 | 0.00 | 0.00 | 86 | 1015.4 |
| 20260507023043 | 23 | 57 | 2.0 | 4.0 | 0.00 | 0.00 | 0.00 | 85 | 1015.4 |
| 20260507022538 | 23 | 57 | 2.0 | 4.0 | 0.00 | 0.00 | 0.00 | 85 | 1015.5 |
| 20260507022038 | 22 | 44 | 2.0 | 4.0 | 0.00 | 0.00 | 0.00 | 85 | 1015.4 |
| 20260507021556 | 22 | 47 | 1.0 | 3.0 | 0.00 | 0.00 | 0.00 | 85 | 1015.5 |
| 20260507021037 | 22 | 47 | 1.0 | 3.0 | 0.00 | 0.00 | 0.00 | 85 | 1015.5 |
| 20260507020537 | 22 | 47 | 1.0 | 3.0 | 0.00 | 0.00 | 0.00 | 84 | 1015.4 |
| 20260507020049 | 22 | 47 | 1.0 | 3.0 | 0.00 | 0.00 | 0.00 | 84 | 1015.4 |
| 20260507015540 | 22 | 47 | 0.0 | 2.0 | 0.00 | 0.00 | 0.00 | 84 | 1015.5 |
| 20260507015034 | 22 | 0 | 0.0 | 2.0 | 0.00 | 0.00 | 0.00 | 84 | 1015.4 |
| 20260507014548 | 22 | 0 | 0.0 | 2.0 | 0.00 | 0.00 | 0.00 | 84 | 1015.3 |
| 20260507014037 | 23 | 37 | 0.0 | 2.0 | 0.00 | 0.00 | 0.00 | 84 | 1015.3 |
| 20260507013536 | 23 | 0 | 0.0 | 1.0 | 0.00 | 0.00 | 0.00 | 84 | 1015.3 |
| 20260507013046 | 23 | 0 | 0.0 | 2.0 | 0.00 | 0.00 | 0.00 | 84 | 1015.3 |
| 20260507012539 | 23 | 0 | 0.0 | 2.0 | 0.00 | 0.00 | 0.00 | 84 | 1015.3 |
| 20260507012038 | 23 | 36 | 1.0 | 3.0 | 0.00 | 0.00 | 0.00 | 84 | 1015.3 |
| 20260507011555 | 23 | 0 | 1.0 | 3.0 | 0.00 | 0.00 | 0.00 | 84 | 1015.3 |
| 20260507011038 | 23 | 32 | 2.0 | 3.0 | 0.00 | 0.00 | 0.00 | 84 | 1015.2 |
| 20260507010537 | 23 | 57 | 0.0 | 3.0 | 0.00 | 0.00 | 0.00 | 84 | 1015.1 |
| 20260507010053 | 23 | 57 | 1.0 | 3.0 | 0.00 | 0.00 | 0.00 | 83 | 1015.0 |
| 20260507005538 | 23 | 45 | 1.0 | 4.0 | 0.00 | 0.00 | 0.00 | 84 | 1015.1 |
| 20260507005041 | 23 | 28 | 2.0 | 4.0 | 0.00 | 0.00 | 0.00 | 84 | 1015.0 |
| 20260507004542 | 23 | 63 | 2.0 | 4.0 | 0.00 | 0.00 | 0.00 | 83 | 1014.9 |
| 20260507004038 | 23 | 77 | 2.0 | 4.0 | 0.00 | 0.00 | 0.00 | 83 | 1015.0 |
| 20260507003537 | 23 | 56 | 2.0 | 3.0 | 0.00 | 0.00 | 0.00 | 83 | 1014.9 |
| 20260507003047 | 23 | 65 | 1.0 | 3.0 | 0.00 | 0.00 | 0.00 | 83 | 1014.9 |
| 20260507002537 | 24 | 0 | 0.0 | 4.0 | 0.00 | 0.00 | 0.00 | 83 | 1014.9 |
| 20260507002037 | 24 | 42 | 2.0 | 4.0 | 0.00 | 0.00 | 0.00 | 83 | 1014.9 |
| 20260507001544 | 23 | 38 | 2.0 | 4.0 | 0.00 | 0.00 | 0.00 | 83 | 1014.8 |
| 20260507001036 | 23 | 55 | 0.0 | 5.0 | 0.00 | 0.00 | 0.00 | 83 | 1014.7 |
| 20260507000539 | 23 | 46 | 2.0 | 5.0 | 0.00 | 0.00 | 0.00 | 82 | 1014.7 |
| 20260507000048 | 23 | 40 | 2.0 | 5.0 | 0.00 | 0.00 | 0.00 | 82 | 1014.7 |
| 20260506235539 | 24 | 74 | 1.0 | 4.0 | 0.00 | 0.00 | 0.00 | 81 | 1014.6 |
| 20260506235035 | 24 | 0 | 0.0 | 4.0 | 0.00 | 0.00 | 0.00 | 82 | 1014.6 |
| 20260506234615 | 24 | 0 | 1.0 | 3.0 | 0.00 | 0.00 | 0.00 | 82 | 1014.6 |
| 20260506234038 | 24 | 0 | 1.0 | 4.0 | 0.00 | 0.00 | 0.00 | 81 | 1014.7 |
| 20260506233538 | 24 | 51 | 2.0 | 4.0 | 0.00 | 0.00 | 0.00 | 81 | 1014.6 |
| 20260506233045 | 24 | 42 | 2.0 | 4.0 | 0.00 | 0.00 | 0.00 | 81 | 1014.6 |
| 20260506232537 | 25 | 58 | 0.0 | 2.0 | 0.00 | 0.00 | 0.00 | 82 | 1014.6 |
| 20260506232038 | 25 | 58 | 0.0 | 2.0 | 0.00 | 0.00 | 0.00 | 82 | 1014.7 |
| 20260506231554 | 25 | 58 | 1.0 | 3.0 | 0.00 | 0.00 | 0.00 | 82 | 1014.6 |
| 20260506231037 | 25 | 63 | 1.0 | 3.0 | 0.00 | 0.00 | 0.00 | 81 | 1014.6 |
| 20260506230537 | 25 | 37 | 0.0 | 2.0 | 0.00 | 0.00 | 0.00 | 80 | 1014.5 |
| 20260506230057 | 25 | 0 | 0.0 | 5.0 | 0.00 | 0.00 | 0.00 | 81 | 1014.5 |
| 20260506225538 | 25 | 0 | 1.0 | 5.0 | 0.00 | 0.00 | 0.00 | 81 | 1014.5 |
| 20260506225035 | 25 | 40 | 3.0 | 5.0 | 0.00 | 0.00 | 0.00 | 80 | 1014.5 |
| 20260506224547 | 25 | 65 | 0.0 | 3.0 | 0.00 | 0.00 | 0.00 | 80 | 1014.6 |
| 20260506224037 | 26 | 0 | 0.0 | 3.0 | 0.00 | 0.00 | 0.00 | 80 | 1014.6 |
| 20260506223537 | 26 | 67 | 2.0 | 3.0 | 0.00 | 0.00 | 0.00 | 80 | 1014.6 |
| 20260506223057 | 26 | 67 | 1.0 | 2.0 | 0.00 | 0.00 | 0.00 | 80 | 1014.6 |
| 20260506222538 | 26 | 67 | 0.0 | 2.0 | 0.00 | 0.00 | 0.00 | 81 | 1014.5 |
| 20260506222041 | 26 | 67 | 0.0 | 3.0 | 0.00 | 0.00 | 0.00 | 80 | 1014.5 |
| 20260506221555 | 26 | 67 | 1.0 | 3.0 | 0.00 | 0.00 | 0.00 | 78 | 1014.4 |
| 20260506221039 | 27 | 79 | 1.0 | 4.0 | 0.00 | 0.00 | 0.00 | 79 | 1014.4 |
| 20260506220537 | 27 | 355 | 1.0 | 4.0 | 0.00 | 0.00 | 0.00 | 80 | 1014.4 |
| 20260506220047 | 27 | 57 | 0.0 | 2.0 | 0.00 | 0.00 | 0.00 | 80 | 1014.4 |
| 20260506215539 | 27 | 0 | 0.0 | 3.0 | 0.00 | 0.00 | 0.00 | 80 | 1014.4 |
| 20260506215037 | 27 | 0 | 0.0 | 3.0 | 0.00 | 0.00 | 0.00 | 80 | 1014.4 |
| 20260506214544 | 28 | 57 | 1.0 | 3.0 | 0.00 | 0.00 | 0.00 | 78 | 1014.4 |
| 20260506214037 | 28 | 62 | 1.0 | 3.0 | 0.00 | 0.00 | 0.00 | 77 | 1014.3 |
| 20260506213539 | 28 | 59 | 1.0 | 3.0 | 0.00 | 0.00 | 0.00 | 76 | 1014.3 |
| 20260506213048 | 28 | 57 | 0.0 | 2.0 | 0.00 | 0.00 | 0.00 | 76 | 1014.2 |
| 20260506212538 | 29 | 0 | 0.0 | 2.0 | 0.00 | 0.00 | 0.00 | 76 | 1014.2 |
| 20260506212035 | 29 | 0 | 0.0 | 2.0 | 0.00 | 0.00 | 0.00 | 77 | 1014.1 |
| 20260506211546 | 29 | 57 | 0.0 | 3.0 | 0.00 | 0.00 | 0.00 | 77 | 1014.2 |
| 20260506211038 | 29 | 57 | 1.0 | 3.0 | 0.00 | 0.00 | 0.00 | 77 | 1014.2 |
| 20260506210538 | 29 | 57 | 0.0 | 2.0 | 0.00 | 0.00 | 0.00 | 76 | 1014.1 |
| 20260506210047 | 29 | 0 | 0.0 | 2.0 | 0.00 | 0.00 | 0.00 | 76 | 1014.2 |
| 20260506205537 | 29 | 57 | 1.0 | 2.0 | 0.00 | 0.00 | 0.00 | 75 | 1014.1 |
| 20260506205037 | 30 | 57 | 0.0 | 3.0 | 0.00 | 0.00 | 0.00 | 73 | 1014.1 |
| 20260506204554 | 30 | 57 | 0.0 | 3.0 | 0.00 | 0.00 | 0.00 | 75 | 1014.1 |
| 20260506204040 | 30 | 57 | 1.0 | 3.0 | 0.00 | 0.00 | 0.00 | 73 | 1014.1 |
| 20260506203537 | 30 | 52 | 2.0 | 3.0 | 0.00 | 0.00 | 0.00 | 72 | 1014.0 |
| 20260506203050 | 31 | 72 | 1.0 | 3.0 | 0.00 | 0.00 | 0.00 | 67 | 1014.1 |
| 20260506202538 | 32 | 0 | 0.0 | 3.0 | 0.00 | 0.00 | 0.00 | 67 | 1014.0 |
| 20260506202038 | 32 | 42 | 1.0 | 3.0 | 0.00 | 0.00 | 0.00 | 66 | 1014.2 |
| 20260506201543 | 32 | 42 | 1.0 | 3.0 | 0.00 | 0.00 | 0.00 | 66 | 1014.2 |
| 20260506201040 | 32 | 46 | 1.0 | 4.0 | 0.00 | 0.00 | 0.00 | 65 | 1014.2 |
| 20260506200538 | 32 | 46 | 2.0 | 4.0 | 0.00 | 0.00 | 0.00 | 66 | 1014.2 |
| 20260506200106 | 33 | 48 | 1.0 | 2.0 | 0.00 | 0.00 | 0.00 | 63 | 1014.3 |
| 20260506195538 | 34 | 0 | 0.0 | 2.0 | 0.00 | 0.00 | 0.00 | 62 | 1014.3 |
| 20260506195039 | 34 | 36 | 1.0 | 3.0 | 0.00 | 0.00 | 0.00 | 60 | 1014.2 |
| 20260506194550 | 34 | 36 | 1.0 | 3.0 | 0.00 | 0.00 | 0.00 | 60 | 1014.2 |
| 20260506194037 | 34 | 36 | 0.0 | 2.0 | 0.00 | 0.00 | 0.00 | 59 | 1014.2 |
| 20260506193541 | 35 | 36 | 0.0 | 3.0 | 0.00 | 0.00 | 0.00 | 60 | 1014.3 |
| 20260506193048 | 36 | 36 | 1.0 | 3.0 | 0.00 | 0.00 | 0.00 | 56 | 1014.2 |
| 20260506192537 | 36 | 36 | 2.0 | 3.0 | 0.00 | 0.00 | 0.00 | 56 | 1014.2 |
| 20260506192041 | 36 | 360 | 1.0 | 2.0 | 0.00 | 0.00 | 0.00 | 54 | 1014.1 |
| 20260506191552 | 37 | 330 | 0.0 | 1.0 | 0.00 | 0.00 | 0.00 | 53 | 1014.1 |
| 20260506191036 | 38 | 0 | 0.0 | 2.0 | 0.00 | 0.00 | 0.00 | 51 | 1014.1 |
| 20260506190538 | 39 | 0 | 0.0 | 2.0 | 0.00 | 0.00 | 0.00 | 49 | 1014.0 |
| 20260506190050 | 40 | 330 | 1.0 | 2.0 | 0.00 | 0.00 | 0.00 | 47 | 1014.0 |
| 20260506185538 | 41 | 330 | 1.0 | 2.0 | 0.00 | 0.00 | 0.00 | 53 | 1013.9 |
| 20260506185041 | 41 | 330 | 1.0 | 2.0 | 0.00 | 0.00 | 0.00 | 45 | 1013.9 |
| 20260506184557 | 42 | 330 | 1.0 | 3.0 | 0.00 | 0.00 | 0.00 | 43 | 1013.9 |
| 20260506184037 | 42 | 320 | 1.0 | 3.0 | 0.00 | 0.00 | 0.00 | 43 | 1013.8 |
| 20260506183537 | 43 | 320 | 1.0 | 4.0 | 0.00 | 0.00 | 0.00 | 41 | 1013.8 |
| 20260506183101 | 44 | 319 | 2.0 | 4.0 | 0.00 | 0.00 | 0.00 | 42 | 1013.8 |
| 20260506182537 | 44 | 316 | 2.0 | 4.0 | 0.00 | 0.00 | 0.00 | 42 | 1013.8 |
| 20260506182038 | 45 | 316 | 2.0 | 5.0 | 0.00 | 0.00 | 0.00 | 39 | 1013.8 |
| 20260506181559 | 45 | 302 | 3.0 | 5.0 | 0.00 | 0.00 | 0.00 | 38 | 1013.8 |
| 20260506181038 | 45 | 313 | 2.0 | 7.0 | 0.00 | 0.00 | 0.00 | 39 | 1013.7 |
| 20260506180539 | 45 | 312 | 3.0 | 7.0 | 0.00 | 0.00 | 0.00 | 38 | 1013.8 |
| 20260506180048 | 46 | 309 | 3.0 | 8.0 | 0.00 | 0.00 | 0.00 | 37 | 1013.7 |
| 20260506175542 | 46 | 315 | 3.0 | 8.0 | 0.00 | 0.00 | 0.00 | 36 | 1013.8 |
| 20260506175039 | 46 | 295 | 3.0 | 8.0 | 0.00 | 0.00 | 0.00 | 37 | 1013.7 |
| 20260506174545 | 47 | 306 | 4.0 | 10.0 | 0.00 | 0.00 | 0.00 | 36 | 1013.7 |
| 20260506174037 | 47 | 301 | 4.0 | 10.0 | 0.00 | 0.00 | 0.00 | 36 | 1013.6 |
| 20260506173538 | 47 | 297 | 3.0 | 11.0 | 0.00 | 0.00 | 0.00 | 36 | 1013.7 |
| 20260506173101 | 47 | 280 | 4.0 | 11.0 | 0.00 | 0.00 | 0.00 | 36 | 1013.6 |
| 20260506172537 | 47 | 313 | 6.0 | 11.0 | 0.00 | 0.00 | 0.00 | 36 | 1013.6 |
| 20260506172036 | 47 | 298 | 3.0 | 8.0 | 0.00 | 0.00 | 0.00 | 38 | 1013.6 |
| 20260506171546 | 48 | 281 | 3.0 | 11.0 | 0.00 | 0.00 | 0.00 | 37 | 1013.6 |
| 20260506171038 | 48 | 304 | 7.0 | 12.0 | 0.00 | 0.00 | 0.00 | 36 | 1013.5 |
| 20260506170538 | 48 | 272 | 6.0 | 12.0 | 0.00 | 0.00 | 0.00 | 35 | 1013.6 |
| 20260506170052 | 49 | 304 | 8.0 | 12.0 | 0.00 | 0.00 | 0.00 | 34 | 1013.6 |
| 20260506165539 | 49 | 339 | 4.0 | 9.0 | 0.00 | 0.00 | 0.00 | 34 | 1013.5 |
| 20260506165038 | 49 | 273 | 3.0 | 9.0 | 0.00 | 0.00 | 0.00 | 35 | 1013.5 |
| 20260506164550 | 49 | 279 | 5.0 | 9.0 | 0.00 | 0.00 | 0.00 | 36 | 1013.5 |
| 20260506164037 | 50 | 269 | 5.0 | 10.0 | 0.00 | 0.00 | 0.00 | 35 | 1013.4 |
| 20260506163537 | 50 | 296 | 3.0 | 10.0 | 0.00 | 0.00 | 0.00 | 36 | 1013.5 |
| 20260506163054 | 50 | 316 | 6.0 | 10.0 | 0.00 | 0.00 | 0.00 | 34 | 1013.4 |
| 20260506162537 | 51 | 306 | 5.0 | 10.0 | 0.00 | 0.00 | 0.00 | 33 | 1013.4 |
| 20260506162037 | 51 | 265 | 4.0 | 10.0 | 0.00 | 0.00 | 0.00 | 35 | 1013.4 |
| 20260506161556 | 51 | 318 | 4.0 | 10.0 | 0.00 | 0.00 | 0.00 | 33 | 1013.3 |
| 20260506161037 | 51 | 281 | 5.0 | 10.0 | 0.00 | 0.00 | 0.00 | 33 | 1013.3 |
| 20260506160537 | 50 | 343 | 3.0 | 9.0 | 0.00 | 0.00 | 0.00 | 33 | 1013.4 |
| 20260506160046 | 50 | 313 | 3.0 | 11.0 | 0.00 | 0.00 | 0.00 | 34 | 1013.3 |
| 20260506155537 | 51 | 284 | 6.0 | 12.0 | 0.00 | 0.00 | 0.00 | 33 | 1013.4 |
| 20260506155037 | 51 | 332 | 6.0 | 12.0 | 0.00 | 0.00 | 0.00 | 32 | 1013.4 |
| 20260506154545 | 51 | 306 | 3.0 | 9.0 | 0.00 | 0.00 | 0.00 | 32 | 1013.3 |
| 20260506154041 | 51 | 340 | 2.0 | 9.0 | 0.00 | 0.00 | 0.00 | 32 | 1013.3 |
| 20260506153539 | 52 | 0 | 4.0 | 13.0 | 0.00 | 0.00 | 0.00 | 34 | 1013.3 |
| 20260506153046 | 51 | 314 | 7.0 | 13.0 | 0.00 | 0.00 | 0.00 | 34 | 1013.4 |
| 20260506152539 | 51 | 323 | 7.0 | 12.0 | 0.00 | 0.00 | 0.00 | 33 | 1013.4 |
| 20260506152038 | 51 | 278 | 2.0 | 10.0 | 0.00 | 0.00 | 0.00 | 32 | 1013.4 |
| 20260506151601 | 51 | 322 | 6.0 | 10.0 | 0.00 | 0.00 | 0.00 | 32 | 1013.4 |
| 20260506151037 | 51 | 314 | 7.0 | 11.0 | 0.00 | 0.00 | 0.00 | 32 | 1013.4 |
| 20260506150538 | 51 | 304 | 3.0 | 13.0 | 0.00 | 0.00 | 0.00 | 35 | 1013.4 |
| 20260506150047 | 51 | 294 | 5.0 | 13.0 | 0.00 | 0.00 | 0.00 | 33 | 1013.4 |
| 20260506145538 | 52 | 308 | 6.0 | 11.0 | 0.00 | 0.00 | 0.00 | 33 | 1013.3 |
| 20260506145037 | 52 | 302 | 6.0 | 10.0 | 0.00 | 0.00 | 0.00 | 34 | 1013.4 |
| 20260506144544 | 52 | 277 | 5.0 | 10.0 | 0.00 | 0.00 | 0.00 | 32 | 1013.4 |
| 20260506144041 | 52 | 282 | 5.0 | 11.0 | 0.00 | 0.00 | 0.00 | 33 | 1013.4 |
| 20260506143537 | 52 | 292 | 5.0 | 13.0 | 0.00 | 0.00 | 0.00 | 33 | 1013.5 |
| 20260506143048 | 52 | 277 | 8.0 | 13.0 | 0.00 | 0.00 | 0.00 | 33 | 1013.5 |
| 20260506142538 | 52 | 20 | 4.0 | 11.0 | 0.00 | 0.00 | 0.00 | 32 | 1013.5 |
| 20260506142038 | 52 | 317 | 5.0 | 11.0 | 0.00 | 0.00 | 0.00 | 32 | 1013.5 |
| 20260506141542 | 52 | 253 | 6.0 | 11.0 | 0.00 | 0.00 | 0.00 | 34 | 1013.3 |
| 20260506141038 | 52 | 323 | 6.0 | 11.0 | 0.00 | 0.00 | 0.00 | 32 | 1013.4 |
| 20260506140540 | 52 | 282 | 4.0 | 11.0 | 0.00 | 0.00 | 0.00 | 32 | 1013.4 |
| 20260506140058 | 53 | 333 | 3.0 | 12.0 | 0.00 | 0.00 | 0.00 | 33 | 1013.4 |
| 20260506135536 | 53 | 280 | 6.0 | 14.0 | 0.00 | 0.00 | 0.00 | 34 | 1013.5 |
| 20260506135037 | 53 | 273 | 4.0 | 14.0 | 0.00 | 0.00 | 0.00 | 34 | 1013.4 |
| 20260506134548 | 53 | 229 | 8.0 | 15.0 | 0.00 | 0.00 | 0.00 | 33 | 1013.4 |
| 20260506134038 | 53 | 304 | 6.0 | 15.0 | 0.00 | 0.00 | 0.00 | 35 | 1013.4 |
| 20260506133539 | 52 | 261 | 3.0 | 13.0 | 0.00 | 0.00 | 0.00 | 34 | 1013.5 |
| 20260506133047 | 52 | 313 | 7.0 | 12.0 | 0.00 | 0.00 | 0.00 | 33 | 1013.5 |
| 20260506132537 | 53 | 303 | 7.0 | 17.0 | 0.00 | 0.00 | 0.00 | 35 | 1013.5 |
| 20260506132040 | 52 | 269 | 3.0 | 17.0 | 0.00 | 0.00 | 0.00 | 32 | 1013.4 |
| 20260506131543 | 52 | 309 | 6.0 | 12.0 | 0.00 | 0.00 | 0.00 | 34 | 1013.4 |
| 20260506131039 | 52 | 321 | 2.0 | 13.0 | 0.00 | 0.00 | 0.00 | 37 | 1013.4 |
| 20260506130536 | 53 | 290 | 7.0 | 13.0 | 0.00 | 0.00 | 0.00 | 35 | 1013.4 |
| 20260506130057 | 53 | 285 | 6.0 | 13.0 | 0.00 | 0.00 | 0.00 | 32 | 1013.4 |
| 20260506125538 | 53 | 272 | 8.0 | 12.0 | 0.00 | 0.00 | 0.00 | 35 | 1013.4 |
| 20260506125040 | 53 | 248 | 5.0 | 13.0 | 0.00 | 0.00 | 0.00 | 32 | 1013.4 |
| 20260506124545 | 53 | 287 | 8.0 | 15.0 | 0.00 | 0.00 | 0.00 | 33 | 1013.4 |
| 20260506124038 | 53 | 250 | 5.0 | 15.0 | 0.00 | 0.00 | 0.00 | 37 | 1013.5 |
| 20260506123538 | 52 | 277 | 8.0 | 17.0 | 0.00 | 0.00 | 0.00 | 35 | 1013.4 |
| 20260506123048 | 52 | 315 | 8.0 | 17.0 | 0.00 | 0.00 | 0.00 | 32 | 1013.5 |
| 20260506122537 | 52 | 311 | 7.0 | 17.0 | 0.00 | 0.00 | 0.00 | 33 | 1013.5 |
| 20260506122036 | 52 | 308 | 4.0 | 11.0 | 0.00 | 0.00 | 0.00 | 35 | 1013.5 |
| 20260506121546 | 52 | 347 | 3.0 | 15.0 | 0.00 | 0.00 | 0.00 | 34 | 1013.5 |
| 20260506121039 | 52 | 288 | 6.0 | 15.0 | 0.00 | 0.00 | 0.00 | 36 | 1013.5 |
| 20260506120537 | 52 | 325 | 9.0 | 15.0 | 0.00 | 0.00 | 0.00 | 33 | 1013.5 |
| 20260506120047 | 53 | 277 | 7.0 | 15.0 | 0.00 | 0.00 | 0.00 | 37 | 1013.4 |
| 20260506115539 | 52 | 233 | 5.0 | 13.0 | 0.00 | 0.00 | 0.00 | 35 | 1013.4 |
| 20260506115038 | 52 | 258 | 3.0 | 12.0 | 0.00 | 0.00 | 0.00 | 34 | 1013.4 |
| 20260506114546 | 52 | 307 | 6.0 | 14.0 | 0.00 | 0.00 | 0.00 | 33 | 1013.5 |
| 20260506114038 | 52 | 284 | 9.0 | 14.0 | 0.00 | 0.00 | 0.00 | 34 | 1013.5 |
| 20260506113537 | 52 | 300 | 7.0 | 14.0 | 0.00 | 0.00 | 0.00 | 37 | 1013.4 |
| 20260506113043 | 52 | 277 | 5.0 | 13.0 | 0.00 | 0.00 | 0.00 | 34 | 1013.4 |
| 20260506112539 | 52 | 308 | 4.0 | 17.0 | 0.00 | 0.00 | 0.00 | 34 | 1013.3 |
| 20260506112038 | 52 | 315 | 7.0 | 17.0 | 0.00 | 0.00 | 0.00 | 35 | 1013.4 |
| 20260506111551 | 52 | 314 | 8.0 | 17.0 | 0.00 | 0.00 | 0.00 | 34 | 1013.4 |
| 20260506111038 | 51 | 311 | 5.0 | 17.0 | 0.00 | 0.00 | 0.00 | 34 | 1013.4 |
| 20260506110539 | 52 | 281 | 9.0 | 17.0 | 0.00 | 0.00 | 0.00 | 33 | 1013.4 |
| 20260506110053 | 52 | 281 | 9.0 | 16.0 | 0.00 | 0.00 | 0.00 | 37 | 1013.3 |
| 20260506105538 | 52 | 277 | 9.0 | 16.0 | 0.00 | 0.00 | 0.00 | 35 | 1013.3 |
| 20260506105037 | 52 | 299 | 9.0 | 17.0 | 0.00 | 0.00 | 0.00 | 38 | 1013.2 |
| 20260506104545 | 52 | 284 | 9.0 | 17.0 | 0.00 | 0.00 | 0.00 | 37 | 1013.2 |
| 20260506104037 | 52 | 267 | 10.0 | 17.0 | 0.00 | 0.00 | 0.00 | 37 | 1013.2 |
| 20260506103538 | 51 | 306 | 8.0 | 16.0 | 0.00 | 0.00 | 0.00 | 36 | 1013.2 |
| 20260506103048 | 51 | 305 | 8.0 | 15.0 | 0.00 | 0.00 | 0.00 | 37 | 1013.2 |
| 20260506102539 | 50 | 286 | 7.0 | 12.0 | 0.00 | 0.00 | 0.00 | 39 | 1013.3 |
| 20260506102038 | 51 | 267 | 3.0 | 10.0 | 0.00 | 0.00 | 0.00 | 38 | 1013.2 |
| 20260506101554 | 51 | 15 | 3.0 | 13.0 | 0.00 | 0.00 | 0.00 | 37 | 1013.2 |
| 20260506101039 | 50 | 323 | 6.0 | 14.0 | 0.00 | 0.00 | 0.00 | 39 | 1013.3 |
| 20260506100538 | 50 | 290 | 6.0 | 14.0 | 0.00 | 0.00 | 0.00 | 41 | 1013.2 |
| 20260506100042 | 50 | 312 | 7.0 | 13.0 | 0.00 | 0.00 | 0.00 | 39 | 1013.2 |
| 20260506095543 | 51 | 323 | 5.0 | 12.0 | 0.00 | 0.00 | 0.00 | 41 | 1013.2 |
| 20260506095038 | 51 | 281 | 3.0 | 11.0 | 0.00 | 0.00 | 0.00 | 44 | 1013.1 |
| 20260506094557 | 49 | 269 | 6.0 | 19.0 | 0.00 | 0.00 | 0.00 | 45 | 1013.2 |
| 20260506094038 | 49 | 271 | 7.0 | 19.0 | 0.00 | 0.00 | 0.00 | 41 | 1013.1 |
| 20260506093542 | 50 | 298 | 7.0 | 19.0 | 0.00 | 0.00 | 0.00 | 41 | 1013.0 |
| 20260506093047 | 49 | 294 | 4.0 | 13.0 | 0.00 | 0.00 | 0.00 | 45 | 1012.9 |
| 20260506092540 | 48 | 317 | 5.0 | 17.0 | 0.00 | 0.00 | 0.00 | 42 | 1013.0 |
| 20260506092038 | 50 | 336 | 8.0 | 17.0 | 0.00 | 0.00 | 0.00 | 42 | 1013.0 |
| 20260506091544 | 52 | 323 | 7.0 | 15.0 | 0.00 | 0.00 | 0.00 | 45 | 1013.0 |
| 20260506091040 | 51 | 298 | 4.0 | 17.0 | 0.00 | 0.00 | 0.00 | 45 | 1012.9 |
| 20260506090539 | 51 | 257 | 9.0 | 17.0 | 0.00 | 0.00 | 0.00 | 51 | 1012.8 |